Date String (YYYY-MM-DD hh:mm:ss) UTC,Instrument flags,absolute air pressure of the measurement (hPa),sample flow rate (lpm),inlet stack bypass flow (lpm),air temperature of the measurement (°C),ambient temperature measured by the external sensor (°C),aerosol sample conditioner tube jacket temperature (°C),OPC LED temperature (°C),internal box temperature (°C),relative humidity of the measurement (%),span deviation,mass concentration of particles derived from Lorenz-Mie calculation of OPC scattering (μg/m³),mass concentration of particles derived from Lorenz-Mie calculation of OPC scattering (μg/m³),mass concentration of particles derived from Lorenz-Mie calculation of OPC scattering (μg/m³)
DateTimeUTC,F1_M11,P_M11,Q1_M11,Q2_M11,T1_M11,T2_M11,T3_M11,T4_M11,T5_M11,U1_M11,ZSPAN_M11,X0_M11,X2_M11,X1_M11
2024-06-15 10:00:00,SystemResetWarning,0828.4,5.00,000.00,031.2,030.5,000.0,039.4,032.9,036.1,0001.2,0020.64,0010.79,0008.96
2024-06-15 10:01:00,SystemResetWarning,0828.4,5.00,000.00,031.2,030.5,000.0,039.5,032.9,036.1,0001.3,0020.49,0010.76,0008.94
2024-06-15 10:02:00,SystemResetWarning,0828.4,4.99,000.00,031.2,030.5,000.0,039.5,032.9,036.1,0000.9,0020.97,0010.73,0008.92
2024-06-15 10:03:00,SystemResetWarning,0828.4,5.00,000.00,031.2,030.5,000.0,039.5,032.9,036.0,0000.4,0021.45,0010.74,0008.90
2024-06-15 10:04:00,SystemResetWarning,0828.4,4.99,000.00,031.2,030.5,000.0,039.5,032.9,036.0,0000.4,0021.72,0010.69,0008.83
2024-06-15 10:05:00,SystemResetWarning,0828.3,5.01,000.00,031.2,030.6,000.0,039.5,032.9,036.0,0000.3,0021.92,0010.69,0008.82
2024-06-15 10:06:00,SystemResetWarning,0828.3,5.01,000.00,031.2,030.6,000.0,039.5,032.9,036.0,-000.2,0021.29,0010.64,0008.81
2024-06-15 10:07:00,SystemResetWarning,0828.3,5.00,000.00,031.2,030.6,000.0,039.5,032.9,036.0,-000.0,0021.01,0010.61,0008.84
2024-06-15 10:08:00,SystemResetWarning,0828.2,5.00,000.00,031.3,030.6,000.0,039.6,033.0,036.0,-000.1,0020.51,0010.64,0008.88
2024-06-15 10:09:00,SystemResetWarning,0828.2,5.00,000.00,031.3,030.6,000.0,039.6,033.0,036.0,-000.3,0019.16,0010.64,0008.91
2024-06-15 10:10:00,SystemResetWarning,0828.2,5.00,000.00,031.3,030.6,000.0,039.6,033.0,035.9,-000.2,0019.42,0010.71,0008.95
2024-06-15 10:11:00,SystemResetWarning,0828.2,4.99,000.00,031.3,030.6,000.0,039.6,033.0,035.8,-000.5,0020.42,0010.81,0009.01
2024-06-15 10:12:00,SystemResetWarning,0828.2,5.00,000.00,031.3,030.6,000.0,039.6,033.0,035.7,-000.5,0020.70,0010.83,0009.03
2024-06-15 10:13:00,SystemResetWarning,0828.1,5.00,000.00,031.3,030.6,000.0,039.6,033.0,035.6,-000.3,0019.86,0010.77,0009.03
2024-06-15 10:14:00,SystemResetWarning,0828.1,5.00,000.00,031.3,030.6,000.0,039.6,033.0,035.4,-000.2,0019.88,0010.68,0009.00
2024-06-15 10:15:00,SystemResetWarning,0828.1,5.01,000.00,031.3,030.6,000.0,039.6,033.0,035.5,-000.1,0020.01,0010.68,0009.00
2024-06-15 10:16:00,SystemResetWarning,0828.0,4.99,000.00,031.2,029.2,000.0,039.7,032.3,035.8,-000.2,0019.88,0010.70,0009.02
2024-06-15 10:17:00,SystemResetWarning,0827.8,5.01,000.00,030.7,027.1,000.0,039.7,031.3,036.5,0000.1,0020.41,0010.79,0009.10
2024-06-15 10:18:00,SystemResetWarning,0827.8,5.02,000.00,030.4,026.7,000.0,039.6,031.0,037.2,-000.4,0020.98,0010.91,0009.20
2024-06-15 10:19:00,SystemResetWarning,0827.8,5.00,000.00,030.2,027.1,000.0,039.4,031.1,037.6,-000.4,0021.21,0010.98,0009.29
2024-06-15 10:20:00,SystemResetWarning,0827.8,5.00,000.00,030.2,027.5,000.0,039.3,031.3,037.6,-000.6,0021.44,0011.13,0009.39
2024-06-15 10:21:00,SystemResetWarning,0827.8,5.00,000.00,030.2,027.9,000.0,039.2,031.5,037.4,-000.9,0021.52,0011.28,0009.46
2024-06-15 10:22:00,SystemResetWarning,0827.8,5.01,000.00,030.2,028.3,000.0,039.1,031.7,037.2,-000.8,0020.96,0011.34,0009.51
2024-06-15 10:23:00,SystemResetWarning,0827.8,4.99,000.00,030.2,028.6,000.0,039.0,031.8,037.0,-000.7,0020.60,0011.43,0009.59
2024-06-15 10:24:00,SystemResetWarning,0827.8,5.00,000.00,030.2,028.8,000.0,039.0,031.9,036.8,-000.6,0020.75,0011.57,0009.70
2024-06-15 10:25:00,SystemResetWarning,0827.8,5.00,000.00,030.3,029.0,000.0,038.9,032.0,036.6,-000.6,0020.43,0011.67,0009.82
2024-06-15 10:26:00,SystemResetWarning,0827.9,5.01,000.00,030.3,029.2,000.0,038.9,032.0,036.5,-000.5,0021.13,0011.77,0009.95
2024-06-15 10:27:00,SystemResetWarning,0827.7,5.01,000.00,030.3,029.3,000.0,038.9,032.0,036.4,-000.4,0021.27,0011.83,0010.01
2024-06-15 10:28:00,SystemResetWarning,0827.7,5.00,000.00,030.4,029.5,000.0,038.9,032.1,036.3,-000.2,0020.87,0011.82,0010.02
2024-06-15 10:29:00,SystemResetWarning,0827.7,4.99,000.00,030.4,029.6,000.0,038.9,032.1,036.1,0000.4,0021.37,0011.83,0010.02
2024-06-15 10:30:00,SystemResetWarning,0827.8,4.99,000.00,030.4,029.6,000.0,038.9,032.2,035.8,0000.4,0021.56,0011.84,0010.01
2024-06-15 10:31:00,SystemResetWarning,0827.7,5.01,000.00,030.5,029.7,000.0,038.9,032.2,035.7,0000.5,0022.05,0011.77,0009.98
2024-06-15 10:32:00,SystemResetWarning,0827.8,5.01,000.00,030.5,029.8,000.0,038.9,032.2,035.4,0000.8,0021.79,0011.70,0009.96
2024-06-15 10:33:00,SystemResetWarning,0827.8,5.01,000.00,030.5,029.8,000.0,038.9,032.3,035.3,0000.6,0021.55,0011.65,0009.95
2024-06-15 10:34:00,SystemResetWarning,0827.7,5.00,000.00,030.6,029.9,000.0,038.9,032.3,035.2,0000.4,0021.48,0011.68,0009.93
2024-06-15 10:35:00,SystemResetWarning,0827.7,4.99,000.00,030.6,029.9,000.0,038.9,032.3,035.0,0000.1,0022.54,0011.71,0009.90
2024-06-15 10:36:00,SystemResetWarning,0827.7,4.99,000.00,030.6,030.0,000.0,038.9,032.4,034.8,0000.1,0023.54,0011.71,0009.85
2024-06-15 10:37:00,SystemResetWarning,0827.7,5.00,000.00,030.6,030.0,000.0,039.0,032.4,034.7,0000.1,0022.86,0011.70,0009.81
2024-06-15 10:38:00,SystemResetWarning,0827.6,5.00,000.00,030.7,030.0,000.0,039.0,032.4,034.7,-000.3,0022.60,0011.66,0009.76
2024-06-15 10:39:00,SystemResetWarning,0827.6,5.01,000.00,030.7,030.1,000.0,039.0,032.4,035.3,-000.5,0022.63,0011.68,0009.73
2024-06-15 10:40:00,SystemResetWarning,0827.5,5.00,000.00,030.7,030.1,000.0,039.0,032.5,035.2,-001.0,0022.04,0011.67,0009.71
2024-06-15 10:41:00,SystemResetWarning,0827.5,4.99,000.00,030.7,030.1,000.0,039.0,032.5,035.1,-001.1,0022.30,0011.67,0009.69
2024-06-15 10:42:00,SystemResetWarning,0827.5,4.99,000.00,030.8,030.1,000.0,039.1,032.5,035.1,-001.1,0023.06,0011.69,0009.67
2024-06-15 10:43:00,SystemResetWarning,0827.5,5.01,000.00,030.8,030.2,000.0,039.1,032.5,035.1,-001.3,0023.55,0011.75,0009.65
2024-06-15 10:44:00,SystemResetWarning,0827.5,5.01,000.00,030.8,030.2,000.0,039.1,032.5,035.1,-001.3,0024.48,0011.78,0009.66
2024-06-15 10:45:00,SystemResetWarning,0827.6,5.00,000.00,030.8,030.2,000.0,039.1,032.5,035.0,-000.8,0025.54,0011.72,0009.64
2024-06-15 10:46:00,SystemResetWarning,0827.5,5.00,000.00,030.8,030.2,000.0,039.1,032.6,034.8,-000.4,0025.08,0011.63,0009.64
2024-06-15 10:47:00,SystemResetWarning,0827.6,4.99,000.00,030.8,030.2,000.0,039.1,032.6,034.8,-000.2,0024.27,0011.63,0009.65
2024-06-15 10:48:00,SystemResetWarning,0827.6,4.99,000.00,030.9,030.2,000.0,039.2,032.6,034.8,-000.1,0024.45,0011.65,0009.68
2024-06-15 10:49:00,SystemResetWarning,0827.5,5.00,000.00,030.9,030.2,000.0,039.2,032.6,034.9,0000.2,0024.64,0011.69,0009.73
2024-06-15 10:50:00,SystemResetWarning,0827.5,5.01,000.00,030.9,030.2,000.0,039.2,032.6,034.9,0000.4,0025.02,0011.71,0009.75
2024-06-15 10:51:00,SystemResetWarning,0827.5,5.01,000.00,030.9,030.2,000.0,039.2,032.6,034.9,0000.7,0025.37,0011.80,0009.79
2024-06-15 10:52:00,SystemResetWarning,0827.5,5.01,000.00,030.9,030.2,000.0,039.2,032.6,034.9,0000.7,0024.77,0011.85,0009.85
2024-06-15 10:53:00,SystemResetWarning,0827.5,5.01,000.00,030.9,030.2,000.0,039.2,032.6,035.0,0000.7,0024.29,0011.87,0009.90
2024-06-15 10:54:00,SystemResetWarning,0827.5,4.99,000.00,030.9,030.2,000.0,039.2,032.6,035.0,0000.7,0024.71,0011.86,0009.91
2024-06-15 10:55:00,SystemResetWarning,0827.6,4.99,000.00,030.9,030.2,000.0,039.3,032.6,034.9,0001.0,0024.61,0011.89,0009.94
2024-06-15 10:56:00,SystemResetWarning,0827.7,5.00,000.00,030.9,030.2,000.0,039.3,032.6,034.8,0000.7,0024.24,0011.94,0009.97
2024-06-15 10:57:00,SystemResetWarning,0827.6,5.00,000.00,030.9,030.2,000.0,039.3,032.6,034.8,0000.9,0024.05,0012.06,0010.01
2024-06-15 10:58:00,SystemResetWarning,0827.4,5.00,000.00,030.9,030.3,000.0,039.3,032.6,034.9,0000.9,0024.63,0012.16,0010.07
2024-06-15 10:59:00,SystemResetWarning,0827.5,5.01,000.00,031.0,030.3,000.0,039.3,032.6,034.8,0000.9,0025.08,0012.21,0010.08
